Pampa, TX

4:21 AM CDT on May 26, 2017 (GMT -0500)
Perry Lefors

Weather History for KPPA - February, 2014

Change the Weather History Date:

Saturday, February 15, 2014

  Actual Average Record
Temperature  
Mean Temperature 50 °F -  
Max Temperature 69 °F 52 °F 86 °F (1979)
Min Temperature 30 °F 27 °F 11 °F (1978)
Degree Days  
Heating Degree Days 16    
Moisture  
Dew Point 26 °F    
Average Humidity 46    
Maximum Humidity 81    
Minimum Humidity 20    
Precipitation  
Precipitation 0.00 in - - ()
Sea Level Pressure  
Sea Level Pressure 30.00 in    
Wind  
Wind Speed 13 mph (SSW)    
Max Wind Speed 24 mph    
Max Gust Speed 32 mph    
Visibility 10 miles    
Events      
Averages and records for this station are not official NWS values.
T = Trace of Precipitation, MM = Missing Value Source: NWS Daily Summary

Daily Weather History Graph

Daily Weather History Graph

Search for Another Location

Airport or City:

Trip Planner

Search our weather history database for the weather conditions in past years. The results will help you decide how hot, cold, wet, or windy it might be!

Date:

Astronomy

Feb. 15, 2014 Rise Set
Actual Time 7:30 AM CST 6:26 PM CST
Civil Twilight 7:04 AM CST 6:52 PM CST
Nautical Twilight 6:34 AM CST 7:22 PM CST
Astronomical Twilight 6:05 AM CST 7:51 PM CST
Moon 7:24 PM CST (2/15) 7:33 AM CST (2/15)
Length of Visible Light 11h 47m
Length of Day
10h 55m
Waxing Gibbous, 99% of the Moon is Illuminated
Feb 15
Waxing Gibbous
Feb 22
Last Quarter
Mar 1
New
Mar 8
First Quarter
Mar 16
Full

Hourly Weather History & Observations

Time (CST) Temp. Windchill Dew Point Humidity Pressure Visibility Wind Dir Wind Speed Gust Speed Precip Events Conditions
12:15 AM 31.5 °F 22.9 °F 20.8 °F 65% 30.07 in 10.0 mi South 10.4 mph - N/A   Clear
12:35 AM 32.0 °F 23.6 °F 20.8 °F 63% 30.07 in 10.0 mi South 10.4 mph - N/A   Clear
12:55 AM 32.2 °F 23.8 °F 20.3 °F 62% 30.06 in 10.0 mi South 10.4 mph - N/A   Clear
1:15 AM 32.2 °F 23.2 °F 20.1 °F 61% 30.05 in 10.0 mi South 11.5 mph - N/A   Clear
1:35 AM 30.7 °F 22.0 °F 20.3 °F 65% 30.05 in 10.0 mi South 10.4 mph - N/A   Clear
1:55 AM 32.0 °F 22.5 °F 20.3 °F 62% 30.03 in 10.0 mi South 12.7 mph - N/A   Clear
2:15 AM 32.0 °F 23.6 °F 19.6 °F 60% 30.02 in 10.0 mi South 10.4 mph - N/A   Clear
2:35 AM 33.6 °F 25.0 °F 18.9 °F 55% 30.03 in 10.0 mi South 11.5 mph - N/A   Clear
2:55 AM 35.2 °F 27.6 °F 18.5 °F 51% 30.02 in 10.0 mi South 10.4 mph - N/A   Clear
3:15 AM 35.6 °F 28.0 °F 18.5 °F 50% 30.01 in 10.0 mi SSW 10.4 mph - N/A   Clear
3:35 AM 36.0 °F 27.5 °F 17.6 °F 47% 30.00 in 10.0 mi SSW 12.7 mph - N/A   Clear
3:55 AM 36.1 °F 27.7 °F 17.4 °F 47% 29.99 in 10.0 mi South 12.7 mph - N/A   Clear
4:15 AM 35.8 °F 26.9 °F 17.2 °F 47% 29.99 in 10.0 mi South 13.8 mph - N/A   Clear
4:35 AM 36.1 °F 28.2 °F 16.9 °F 46% 29.99 in 10.0 mi SSW 11.5 mph 18.4 mph N/A   Clear
4:55 AM 37.9 °F 27.9 °F 16.0 °F 41% 29.98 in 10.0 mi South 19.6 mph - N/A   Clear
5:15 AM 39.9 °F 32.1 °F 15.1 °F 36% 29.99 in 10.0 mi WSW 13.8 mph 29.9 mph N/A   Clear
5:35 AM 37.6 °F 27.7 °F 15.8 °F 41% 29.97 in 10.0 mi SSW 18.4 mph - N/A   Clear
5:55 AM 37.6 °F 28.8 °F 16.9 °F 43% 29.98 in 10.0 mi SW 15.0 mph 18.4 mph N/A   Clear
6:15 AM 39.2 °F 29.8 °F 18.7 °F 44% 29.97 in 10.0 mi SSW 18.4 mph 24.2 mph N/A   Clear
6:35 AM 39.6 °F 30.0 °F 19.6 °F 45% 29.97 in 10.0 mi SSW 19.6 mph 25.3 mph N/A   Clear
6:55 AM 39.6 °F 30.0 °F 20.3 °F 46% 29.97 in 10.0 mi SSW 19.6 mph - N/A   Clear
7:15 AM 39.2 °F 30.2 °F 20.3 °F 47% 29.97 in 10.0 mi SSW 17.3 mph 25.3 mph N/A   Clear
7:35 AM 39.2 °F 29.6 °F 20.5 °F 47% 29.96 in 10.0 mi SSW 19.6 mph 24.2 mph N/A   Clear
7:55 AM 39.6 °F 30.6 °F 21.2 °F 48% 29.96 in 10.0 mi SSW 17.3 mph - N/A   Clear
8:15 AM 39.4 °F 30.7 °F 21.7 °F 49% 29.96 in 10.0 mi SSW 16.1 mph 20.7 mph N/A   Clear
8:35 AM 41.2 °F 32.4 °F 22.3 °F 47% 29.96 in 10.0 mi SSW 18.4 mph 25.3 mph N/A   Clear
8:55 AM 43.7 °F 35.0 °F 22.8 °F 44% 29.97 in 10.0 mi SSW 21.9 mph 25.3 mph N/A   Clear
9:15 AM 45.3 °F 36.9 °F 23.0 °F 41% 29.96 in 10.0 mi SSW 23.0 mph 26.5 mph N/A   Clear
9:35 AM 47.5 °F - 23.5 °F 39% 29.97 in 10.0 mi SW 20.7 mph 27.6 mph N/A   Clear
9:55 AM 48.7 °F - 24.1 °F 38% 29.97 in 10.0 mi SW 18.4 mph - N/A   Clear
10:15 AM 51.1 °F - 25.0 °F 36% 29.96 in 10.0 mi SW 18.4 mph 24.2 mph N/A   Clear
10:35 AM 53.1 °F - 25.5 °F 34% 29.96 in 10.0 mi SW 19.6 mph - N/A   Clear
10:55 AM 54.5 °F - 26.1 °F 33% 29.96 in 10.0 mi WSW 16.1 mph - N/A   Clear
11:15 AM 55.0 °F - 26.2 °F 33% 29.96 in 10.0 mi WSW 18.4 mph - N/A   Clear
11:35 AM 55.9 °F - 26.6 °F 32% 29.96 in 10.0 mi WSW 18.4 mph - N/A   Clear
11:55 AM 57.0 °F - 26.8 °F 31% 29.95 in 10.0 mi WSW 17.3 mph - N/A   Clear
12:15 PM 58.6 °F - 27.3 °F 30% 29.95 in 10.0 mi West 12.7 mph - N/A   Clear
12:35 PM 60.3 °F - 27.3 °F 29% 29.94 in 10.0 mi West 10.4 mph - N/A   Clear
12:55 PM 62.1 °F - 27.3 °F 27% 29.94 in 10.0 mi West 12.7 mph - N/A   Clear
1:15 PM 63.7 °F - 27.5 °F 25% 29.93 in 10.0 mi West 10.4 mph - N/A   Clear
1:35 PM 64.6 °F - 27.1 °F 24% 29.92 in 10.0 mi West 10.4 mph - N/A   Clear
1:55 PM 66.0 °F - 27.1 °F 23% 29.92 in 10.0 mi West 10.4 mph - N/A   Clear
2:15 PM 66.2 °F - 27.0 °F 23% 29.91 in 10.0 mi West 8.1 mph - N/A   Clear
2:35 PM 66.7 °F - 27.0 °F 22% 29.91 in 10.0 mi West 8.1 mph - N/A   Clear
2:55 PM 67.3 °F - 26.8 °F 22% 29.91 in 10.0 mi WSW 5.8 mph - N/A   Clear
3:15 PM 69.1 °F - 27.1 °F 21% 29.91 in 10.0 mi West 9.2 mph - N/A   Clear
3:35 PM 69.3 °F - 26.8 °F 20% 29.91 in 10.0 mi West 10.4 mph - N/A   Clear
3:55 PM 69.8 °F - 26.4 °F 20% 29.91 in 10.0 mi West 9.2 mph - N/A   Clear
4:15 PM 69.3 °F - 26.6 °F 20% 29.91 in 10.0 mi West 5.8 mph - N/A   Clear
4:35 PM 69.1 °F - 27.1 °F 21% 29.91 in 10.0 mi WSW 5.8 mph - N/A   Clear
4:55 PM 68.4 °F - 27.3 °F 22% 29.92 in 10.0 mi West 8.1 mph - N/A   Clear
5:15 PM 66.4 °F - 28.6 °F 24% 29.95 in 10.0 mi NW 6.9 mph - N/A   Clear
5:35 PM 62.8 °F - 33.6 °F 34% 29.97 in 10.0 mi NE 18.4 mph 27.6 mph N/A   Clear
5:55 PM 58.3 °F - 35.8 °F 43% 29.99 in 10.0 mi NE 24.2 mph 32.2 mph N/A   Clear
6:15 PM 55.6 °F - 36.5 °F 49% 30.00 in 10.0 mi NE 21.9 mph - N/A   Clear
6:35 PM 53.4 °F - 35.1 °F 50% 30.02 in 10.0 mi NE 19.6 mph 25.3 mph N/A   Clear
6:55 PM 52.2 °F - 35.2 °F 53% 30.04 in 10.0 mi NE 17.3 mph - N/A   Clear
7:15 PM 51.1 °F - 35.4 °F 55% 30.05 in 10.0 mi NE 16.1 mph - N/A   Clear
7:35 PM 50.0 °F - 35.6 °F 58% 30.06 in 10.0 mi NE 16.1 mph - N/A   Clear
7:55 PM 49.1 °F - 35.6 °F 60% 30.06 in 10.0 mi NE 15.0 mph - N/A   Clear
8:15 PM 48.2 °F - 35.6 °F 62% 30.07 in 10.0 mi ENE 12.7 mph - N/A   Clear
8:35 PM 46.4 °F 41.1 °F 35.1 °F 65% 30.07 in 10.0 mi ENE 11.5 mph - N/A   Clear
8:55 PM 44.6 °F 39.7 °F 34.7 °F 68% 30.08 in 10.0 mi East 9.2 mph - N/A   Clear
9:15 PM 43.5 °F 38.9 °F 34.2 °F 70% 30.10 in 10.0 mi ENE 8.1 mph - N/A   Clear
9:35 PM 41.9 °F 36.9 °F 33.8 °F 73% 30.10 in 10.0 mi East 8.1 mph - N/A   Clear
9:55 PM 40.8 °F 36.2 °F 32.9 °F 73% 30.12 in 10.0 mi ENE 6.9 mph - N/A   Clear
10:15 PM 40.3 °F 36.3 °F 32.7 °F 74% 30.12 in 10.0 mi ENE 5.8 mph - N/A   Clear
10:35 PM 38.7 °F 32.9 °F 32.0 °F 77% 30.12 in 10.0 mi ENE 8.1 mph - N/A   Clear
10:55 PM 38.8 °F 33.8 °F 32.0 °F 76% 30.11 in 10.0 mi East 6.9 mph - N/A   Clear
11:15 PM 36.9 °F 30.7 °F 31.6 °F 81% 30.11 in 10.0 mi East 8.1 mph - N/A   Clear
11:35 PM 37.4 °F 30.3 °F 32.0 °F 81% 30.10 in 10.0 mi ENE 10.4 mph - N/A   Clear
11:55 PM 39.9 °F 32.9 °F 32.5 °F 75% 30.09 in 10.0 mi East 11.5 mph - N/A   Clear